TimeCST,TemperatureF,Dew PointF,Humidity,Sea Level PressureIn,VisibilityMPH,Wind Direction,Wind SpeedMPH,Gust SpeedMPH,PrecipitationIn,Events,Conditions,WindDirDegrees,DateUTC
12:51 AM,50.0,46.4,87,30.22,10.0,SE,3.5,-,N/A,,Clear,130,2013-01-20 06:51:00
1:51 AM,51.1,48.0,89,30.22,10.0,Calm,Calm,-,N/A,,Clear,0,2013-01-20 07:51:00
2:51 AM,52.0,48.0,86,30.20,10.0,East,3.5,-,N/A,,Clear,90,2013-01-20 08:51:00
3:47 AM,48.2,46.4,93,30.20,10.0,Calm,Calm,-,N/A,Fog,Shallow Fog,0,2013-01-20 09:47:00
3:51 AM,50.0,46.9,89,30.20,10.0,East,3.5,-,N/A,Fog,Shallow Fog,80,2013-01-20 09:51:00
4:51 AM,50.0,46.9,89,30.19,10.0,NE,3.5,-,N/A,,Clear,50,2013-01-20 10:51:00
5:51 AM,46.9,44.1,90,30.20,10.0,Calm,Calm,-,N/A,Fog,Patches of Fog,0,2013-01-20 11:51:00
6:51 AM,48.0,46.0,93,30.21,10.0,Calm,Calm,-,N/A,Fog,Shallow Fog,0,2013-01-20 12:51:00
7:51 AM,48.0,46.0,93,30.23,10.0,Calm,Calm,-,N/A,Fog,Shallow Fog,0,2013-01-20 13:51:00
8:51 AM,59.0,54.0,83,30.25,7.0,Calm,Calm,-,N/A,,Clear,0,2013-01-20 14:51:00
9:51 AM,66.2,53.6,64,30.25,10.0,East,3.5,-,N/A,,Clear,100,2013-01-20 15:51:00
10:51 AM,71.1,53.1,53,30.25,10.0,South,5.8,-,N/A,,Partly Cloudy,170,2013-01-20 16:51:00
11:51 AM,72.0,53.1,51,30.22,10.0,South,4.6,-,N/A,,Scattered Clouds,180,2013-01-20 17:51:00
12:51 PM,73.9,52.0,46,30.18,10.0,SSE,4.6,-,N/A,,Scattered Clouds,150,2013-01-20 18:51:00
1:51 PM,73.9,53.1,48,30.14,10.0,East,8.1,-,N/A,,Scattered Clouds,90,2013-01-20 19:51:00
2:51 PM,73.9,53.1,48,30.12,10.0,East,12.7,-,N/A,,Partly Cloudy,90,2013-01-20 20:51:00
3:51 PM,73.0,51.1,46,30.12,10.0,East,12.7,-,N/A,,Partly Cloudy,90,2013-01-20 21:51:00
4:51 PM,71.6,53.6,53,30.11,10.0,East,13.8,-,N/A,,Partly Cloudy,100,2013-01-20 22:51:00
5:51 PM,66.0,53.1,63,30.12,10.0,ESE,9.2,-,N/A,,Partly Cloudy,120,2013-01-20 23:51:00
6:51 PM,63.0,53.1,70,30.13,10.0,ESE,8.1,-,N/A,,Clear,110,2013-01-21 00:51:00
7:51 PM,61.0,53.1,75,30.14,10.0,ESE,8.1,-,N/A,,Clear,110,2013-01-21 01:51:00
8:51 PM,60.8,51.8,72,30.14,10.0,ESE,6.9,-,N/A,,Clear,120,2013-01-21 02:51:00
9:51 PM,57.9,51.1,78,30.14,10.0,SE,6.9,-,N/A,,Clear,130,2013-01-21 03:51:00
10:51 PM,57.9,51.1,78,30.15,10.0,ESE,5.8,-,N/A,,Clear,110,2013-01-21 04:51:00
11:51 PM,55.9,50.0,80,30.14,10.0,SSE,4.6,-,N/A,,Clear,160,2013-01-21 05:51:00